Location: Albany
(35.0170°S, 117.8920°E)
Time: 10:07:23
(UTC+08:00)

S-56A Canister/Altair - Pass Details

Date: 24 January 2021
Orbit: 632 x 2501 km, 38.9° (Epoch: 25 February)

Event Time Altitude Azimuth Distance (km) Brightness Sun altitude
Rises 20:02:02 0° 248° (WSW) 6,119 14.4 -8.3°
Reaches altitude 10° 20:06:23 10° 251° (WSW) 4,985 13.2 -9.0°
Maximum altitude 20:19:30 53° 322° (NW) 2,259 9.9 -11.3°
Enters shadow 20:28:08 13° 34° (NNE) 3,412 10.2 -12.8°
Drops below altitude 10° 20:28:43 10° 35° (NE) 3,569 - -12.9°
Sets 20:31:20 0° 40° (NE) 4,314 - -13.3°
